Location: ?ejeti?ky
(50.4060°N, 14.9016°E)
Time: 13:02:40
(UTC+00:00)

N. Korean satellite - Pass Details

Date: 03 December 2021
Orbit: 447 x 490 km, 97.3° (Epoch: 27 January)

Event Time Altitude Azimuth Distance (km) Brightness Sun altitude
Rises 15:54:37 0° 189° (S) 2,531 10.7 -8.6°
Reaches altitude 10° 15:56:51 10° 200° (SSW) 1,649 9.9 -8.9°
Maximum altitude 16:00:02 31° 263° (W) 861 8.7 -9.4°
Drops below altitude 10° 16:03:12 10° 328° (NNW) 1,637 9.4 -9.8°
Sets 16:05:25 0° 339° (NNW) 2,510 10.2 -10.1°
